Tracking 25710 objects as of 7-Jul-2022
HD Live streaming from Space Station
objects crossing your sky now

FENGYUN 1C DEB

Track FENGYUN 1C DEB now!
10-day predictions


NORAD ID: 37921
Int'l Code: 1999-025ENW
Perigee: 860.7 km
Apogee: 982.3 km
Inclination: 99.2 °
Period: 103.3 minutes
Semi major axis: 7292 km
RCS: 0.0041 m2 (small)
Launch date: May 10, 1999
Source: People's Republic of China (PRC)
Launch site: Taiyaun Space Center, China (TSC)

Note: This is SATELLITE DEBRIS
aabbcc
Your satellite tracking list
Your tracking list is empty




NASA's NSSDC Master Catalog

Two Line Element Set (TLE):
1 37921U 99025ENW 22184.37794193  .00000032  00000-0  56793-4 0  9996
2 37921  99.1882 226.5450 0083367 293.3599  65.8808 13.94083717456083
Source of the keplerian elements: AFSPC